Retour au catalogue

COSMOS 841

ActifMilitaireLEO
NORAD 9022·PAYLOAD·🇷🇺 Russia

Lancé Jul 15, 1976 depuis Plesetsk Cosmodrome

Loading…

Prochains Passages (prochaines 24 heures)

TLE

FraisSource: Space-Track

Époque: Sep 14, 2026, 15:24 UTC

1 09022U 76069A   26257.64224875  .00000100  00000-0  42820-4 0  9992
2 09022  74.0430 136.6484 0013281 201.9807 158.0778 14.36851299625228

Suivez COSMOS 841 en temps réel avec AllMySat

Download on the App Store